Location: Unspecified
(0.0000°N, 0.0000°E)
Time: 17:46:24
(UTC+00:00)

Tiros 1 despin weight - Visible Passes

Search period start: 18 January 2020 00:00
Search period end: 28 January 2020 00:00
Orbit: 593 x 643 km, 48.2° (Epoch: 18 January)

Date Brightness Start Highest point End Pass type
(mag) Time Alt. Az. Time Alt. Az. Time Alt. Az.
24 Jan ? 19:40:15 10° NNW 19:41:50 19° N 19:41:50 19° N visible
25 Jan ? 19:56:15 10° NW 20:00:17 66° NW 20:00:17 66° NW visible
26 Jan ? 18:32:40 10° N 18:36:01 19° NE 18:39:22 10° E visible
26 Jan ? 20:13:14 10° WNW 20:17:26 33° SW 20:19:31 22° S visible
27 Jan ? 18:48:00 10° NNW 18:52:32 50° NE 18:57:04 10° SE visible
27 Jan ? 20:31:52 10° WSW 20:33:58 13° SW 20:36:05 10° SSW visible
